星链-31026 (STARLINK-31026 )

导读

STARLINK-31026是美国太空探索技术公司星链计划的卫星,于北京时间2023年12月7日发射入轨,属于星链星座组网卫星,服务全球高速互联网接入服务,为偏远地区、航空航海、地面网络覆盖不足区域提供低延迟宽带通信服务,助力星链实现全球卫星互联网覆盖。

Basic Information
目录编号:
58508
目录名称:
STARLINK-31026
国际标识:
2023-191A
轨道中心:
EARTH
卫星名称:
星链-31026
卫星全名:
星链-31026 (STARLINK-31026 )
卫星状态:
在轨 (已飞行1009 天)
发射日期:
2023-12-07 UTC
国别 :
美国 (US)
星等 :
--
This satellite is enrolled in the Space Conjunction Data Service (SCDS) and the current flight risk assessment level is: High Risk
Orbit Information
数据来源 国际轨道数据 AOE轨道数据
星历时间 2026-09-11T08:34:33+0800
12小时前
查看轨道信息
2026-09-09T23:00:00+0800
1天前
查看轨道信息
半长轴 6861.187km 6861.187km
偏心率 0.0001049 0.0002462
轨道倾角 43.004° 43.000°
近地点辐角 270.470° 223.422°
升交点赤经 143.766° 151.680°
平近点角 89.603° 354.169°
近地点 482.33km 481.36km
远地点 483.77km 484.74km
周期 94.267分钟 94.267分钟
每日圈数 15.275798 15.2758
Detailed Information
固有亮度:
5
最大亮度:
0.3
卫星平台:
Starlink v2.0 mini
覆盖范围:
全球
运营商:
太空探索技术公司
运营商所在国:
美国
制造商(研发单位):
太空探索技术公司
制造商所在国:
美国
使用方式:
暂无
Satellite Introduction
星链(Starlink)计划是由太空探索技术公司(SpaceX)提出的一个巨型低轨卫星互联网星座项目,计划在2019年至2024年间在太空搭建由约1.2万颗卫星组成的“星链”网络,其中1584颗将部署在地球上空550千米处的近地轨道,并从2020年开始工作。该卫星仍在工作。
2D Orbit Map
3D Orbit Map
Orbit Altitude Analysis Chart
Orbit Inclination Analysis Chart
Orbit Comprehensive Analysis Chart
View Comprehensive Chart
Miss Distance Evolution Trend with All Objects
Collision Probability Evolution Trend with All Objects